Weather History for PAEI - October, 2012

Change the Weather History Date:

Thursday, October 18, 2012

  Actual Average Record
Temperature  
Mean Temperature 18 °F -  
Max Temperature 21 °F 29 °F 53 °F (1969)
Min Temperature 15 °F 14 °F -13 °F (1959)
Degree Days  
Heating Degree Days 46    
Moisture  
Dew Point 15 °F    
Average Humidity 85    
Maximum Humidity 89    
Minimum Humidity 78    
Precipitation  
Precipitation 0.00 in - - ()
Sea Level Pressure  
Sea Level Pressure 30.02 in    
Wind  
Wind Speed 0 mph (SSW)    
Max Wind Speed 5 mph    
Max Gust Speed -    
Visibility 10 miles    
Events Snow    
Averages and records for this station are not official NWS values.
T = Trace of Precipitation, MM = Missing Value Source: NWS Daily Summary

Daily Weather History Graph

Daily Weather History Graph

Search for Another Location

Airport or City:

Trip Planner

Search our weather history database for the weather conditions in past years. The results will help you decide how hot, cold, wet, or windy it might be!

Date:

Astronomy

Oct. 18, 2012 Rise Set
Actual Time 8:51 AM AKDT 6:13 PM AKDT
Civil Twilight 8:01 AM AKDT 7:03 PM AKDT
Nautical Twilight 7:04 AM AKDT 8:00 PM AKDT
Astronomical Twilight 6:07 AM AKDT 8:56 PM AKDT
Moon 2:22 PM AKDT (10/18) 7:18 PM AKDT (10/18)
Length of Visible Light 11h 02m
Length of Day
9h 21m
Waxing Crescent, 15% of the Moon is Illuminated
Oct 18
Waxing Crescent
Oct 21
First Quarter
Oct 29
Full
Nov 6
Last Quarter
Nov 13
New

Hourly Weather History & Observations

Time (AKDT) Temp. Windchill Dew Point Humidity Pressure Visibility Wind Dir Wind Speed Gust Speed Precip Events Conditions
12:55 AM 18.1 °F - 14.9 °F 87% 29.94 in 10.0 mi Calm Calm - N/A   Overcast
1:45 AM 17.6 °F - 14.0 °F 86% 29.94 in 10.0 mi Calm Calm - N/A   Overcast
1:55 AM 17.6 °F - 14.4 °F 87% 29.94 in 10.0 mi Calm Calm - N/A   Overcast
2:32 AM 17.6 °F - 14.0 °F 86% 29.94 in 10.0 mi Calm Calm - N/A   Overcast
2:55 AM 17.4 °F - 14.2 °F 87% 29.95 in 10.0 mi Calm Calm - N/A   Overcast
3:55 AM 17.6 °F - 14.4 °F 87% 29.95 in 10.0 mi Calm Calm - N/A   Overcast
4:55 AM 17.6 °F 10.7 °F 14.4 °F 87% 29.96 in 10.0 mi SSE 4.6 mph - N/A   Overcast
5:55 AM 17.2 °F - 14.2 °F 88% 29.98 in 10.0 mi Calm Calm - 0.00 in Snow Light Snow
6:55 AM 17.6 °F - 14.7 °F 88% 29.99 in 10.0 mi Calm Calm - 0.00 in Snow Light Snow
7:22 AM 17.6 °F - 14.0 °F 86% 29.99 in 3.0 mi Calm Calm - N/A Snow Light Snow
7:55 AM 17.6 °F - 14.4 °F 87% 29.99 in 6.0 mi Calm Calm - 0.00 in Snow Light Snow
8:55 AM 16.5 °F - 13.8 °F 89% 29.99 in 10.0 mi Calm Calm - 0.00 in   Overcast
9:38 AM 17.6 °F - 14.0 °F 86% 30.00 in 10.0 mi Calm Calm - N/A   Mostly Cloudy
9:55 AM 17.1 °F - 13.8 °F 87% 30.01 in 10.0 mi Calm Calm - N/A   Mostly Cloudy
10:20 AM 17.6 °F - 14.0 °F 86% 30.01 in 10.0 mi Calm Calm - N/A Snow Light Snow
10:37 AM 17.6 °F - 14.0 °F 86% 29.98 in 10.0 mi Calm Calm - N/A   Mostly Cloudy
10:48 AM 17.6 °F - 14.0 °F 86% 29.98 in 10.0 mi Calm Calm - N/A Snow Light Snow
10:55 AM 16.5 °F - 13.1 °F 86% 30.02 in 10.0 mi Calm Calm - 0.00 in Snow Light Snow
11:55 AM 17.4 °F - 13.1 °F 83% 30.04 in 10.0 mi North - - 0.00 in Snow Light Snow
12:07 PM 17.4 °F 12.1 °F 13.1 °F 83% 30.04 in 10.0 mi WSW 3.5 mph - 0.00 in Snow Light Snow
12:55 PM 20.3 °F - 15.4 °F 81% 30.04 in 10.0 mi Calm Calm - N/A   Mostly Cloudy
1:55 PM 20.3 °F - 15.1 °F 80% 30.05 in 10.0 mi Calm Calm - N/A   Mostly Cloudy
2:55 PM 20.8 °F - 16.0 °F 81% 30.06 in 10.0 mi Calm Calm - N/A   Mostly Cloudy
3:55 PM 21.0 °F - 15.1 °F 78% 30.06 in 10.0 mi Calm Calm - N/A   Scattered Clouds
4:55 PM 20.7 °F - 15.8 °F 81% 30.07 in 10.0 mi Calm Calm - N/A   Mostly Cloudy
5:11 PM 21.2 °F - 15.8 °F 80% 30.07 in 10.0 mi Calm Calm - N/A   Mostly Cloudy
5:55 PM 20.1 °F - 14.9 °F 80% 30.07 in 10.0 mi Calm Calm - N/A   Mostly Cloudy
6:02 PM 19.4 °F - 15.8 °F 86% 30.07 in 10.0 mi Calm Calm - N/A   Overcast
6:55 PM 20.1 °F - 15.3 °F 81% 30.07 in 10.0 mi North - - N/A   Mostly Cloudy
6:58 PM 20.1 °F - 15.3 °F 81% 30.07 in 10.0 mi Calm Calm - N/A   Mostly Cloudy
7:55 PM 18.7 °F - 15.3 °F 87% 30.07 in 10.0 mi Calm Calm - N/A   Overcast
8:55 PM 19.0 °F - 15.8 °F 87% 30.08 in 10.0 mi Calm Calm - N/A   Overcast
9:55 PM 19.0 °F - 15.8 °F 87% 30.09 in 10.0 mi Calm Calm - N/A   Overcast
10:55 PM 16.9 °F - 13.8 °F 88% 30.10 in 10.0 mi Calm Calm - 0.00 in   Overcast
11:55 PM 15.3 °F - 12.6 °F 89% 30.12 in 10.0 mi Calm Calm - N/A   Overcast